Volver al catálogo

STARLINK-31723

ActivoComunicacionesVLEO
NORAD 59553·PAYLOAD·🇺🇸 United States

Lanzado Apr 18, 2024 desde Cape Canaveral Space Force Station

Loading…

Próximos Pases (próximas 24 horas)

TLE

ActualizadoSource: CelesTrak SupGP

Época: Sep 14, 2026, 22:23 UTC

1 59553C 24074V   26257.93312500 -.00012771  00000+0 -46252-3 0  2577
2 59553  43.0033 354.7548 0001477 266.0588 211.3036 15.27586875    13

Sigue STARLINK-31723 en tiempo real con AllMySat

Download on the App Store